Time,TemperatureF,DewpointF,PressureIn,WindDirection,WindDirectionDegrees,WindSpeedMPH,WindSpeedGustMPH,Humidity,HourlyPrecipIn,Conditions,Clouds,dailyrainin,SoftwareType,DateUTC
2013-03-13 00:00:00,39.9,38.0,29.09,West,270,6.0,10.0,90,0.00,,,0.00,Rainwise IP-100,2013-03-13 04:00:00,
2013-03-13 00:01:00,39.8,38.0,29.09,West,270,4.0,10.0,90,0.00,,,0.00,Rainwise IP-100,2013-03-13 04:01:00,
2013-03-13 00:06:00,39.5,38.0,29.10,NNW,337,8.0,8.0,90,0.00,,,0.00,Rainwise IP-100,2013-03-13 04:06:00,
2013-03-13 00:11:00,39.2,37.0,29.10,NNE,22,2.0,9.0,90,0.00,,,0.00,Rainwise IP-100,2013-03-13 04:11:00,
2013-03-13 00:16:00,38.8,37.0,29.10,WNW,292,5.0,5.0,90,0.00,,,0.00,Rainwise IP-100,2013-03-13 04:16:00,
2013-03-13 00:22:00,38.6,37.0,29.09,NW,315,5.0,10.0,90,0.00,,,0.00,Rainwise IP-100,2013-03-13 04:22:00,
2013-03-13 00:27:00,38.5,37.0,29.09,NW,315,5.0,11.0,90,0.00,,,0.00,Rainwise IP-100,2013-03-13 04:27:00,
2013-03-13 00:32:00,38.3,36.0,29.09,NW,315,3.0,7.0,91,0.00,,,0.00,Rainwise IP-100,2013-03-13 04:32:00,
2013-03-13 00:37:00,37.9,36.0,29.09,NW,315,4.0,6.0,91,0.00,,,0.00,Rainwise IP-100,2013-03-13 04:37:00,
2013-03-13 00:42:00,37.8,36.0,29.09,NNW,337,5.0,6.0,91,0.00,,,0.00,Rainwise IP-100,2013-03-13 04:42:00,
2013-03-13 00:47:00,37.8,36.0,29.09,WNW,292,2.0,7.0,91,0.00,,,0.00,Rainwise IP-100,2013-03-13 04:47:00,
2013-03-13 00:52:00,37.7,36.0,29.09,North,360,0.0,6.0,91,0.00,,,0.00,Rainwise IP-100,2013-03-13 04:52:00,
2013-03-13 00:58:00,37.5,36.0,29.09,NE,45,2.0,3.0,92,0.00,,,0.00,Rainwise IP-100,2013-03-13 04:58:00,
2013-03-13 01:03:00,37.3,35.0,29.10,North,360,2.0,6.0,93,0.00,,,0.00,Rainwise IP-100,2013-03-13 05:03:00,
2013-03-13 01:06:00,37.3,35.0,29.10,NE,45,3.0,6.0,93,0.00,,,0.00,Rainwise IP-100,2013-03-13 05:06:00,
2013-03-13 01:11:00,37.5,36.0,29.09,NE,45,0.0,4.0,92,0.00,,,0.00,Rainwise IP-100,2013-03-13 05:11:00,
2013-03-13 01:16:00,37.3,35.0,29.09,NE,45,2.0,5.0,93,0.00,,,0.00,Rainwise IP-100,2013-03-13 05:16:00,
2013-03-13 01:22:00,37.2,36.0,29.09,North,360,4.0,7.0,94,0.00,,,0.00,Rainwise IP-100,2013-03-13 05:22:00,
2013-03-13 01:27:00,36.9,36.0,29.09,NNW,337,3.0,6.0,94,0.00,,,0.00,Rainwise IP-100,2013-03-13 05:27:00,
2013-03-13 01:32:00,36.9,35.0,29.09,NW,315,6.0,6.0,93,0.00,,,0.00,Rainwise IP-100,2013-03-13 05:32:00,
2013-03-13 01:37:00,36.9,35.0,29.09,North,360,2.0,6.0,93,0.00,,,0.00,Rainwise IP-100,2013-03-13 05:37:00,
2013-03-13 01:42:00,36.9,35.0,29.09,NNW,337,2.0,7.0,93,0.00,,,0.00,Rainwise IP-100,2013-03-13 05:42:00,
2013-03-13 01:47:00,36.9,35.0,29.09,NNW,337,4.0,8.0,93,0.00,,,0.00,Rainwise IP-100,2013-03-13 05:47:00,
2013-03-13 01:52:00,37.2,35.0,29.09,NW,315,1.0,8.0,92,0.00,,,0.00,Rainwise IP-100,2013-03-13 05:52:00,
2013-03-13 01:57:00,37.2,35.0,29.09,NW,315,4.0,8.0,92,0.00,,,0.00,Rainwise IP-100,2013-03-13 05:57:00,
2013-03-13 02:02:00,37.2,35.0,29.09,North,360,7.0,7.0,93,0.00,,,0.00,Rainwise IP-100,2013-03-13 06:02:00,
2013-03-13 02:08:00,37.2,35.0,29.08,NW,315,5.0,9.0,91,0.00,,,0.00,Rainwise IP-100,2013-03-13 06:08:00,
2013-03-13 02:13:00,37.3,35.0,29.09,NW,315,3.0,7.0,91,0.00,,,0.00,Rainwise IP-100,2013-03-13 06:13:00,
2013-03-13 02:18:00,37.3,35.0,29.09,NNW,337,2.0,7.0,91,0.00,,,0.00,Rainwise IP-100,2013-03-13 06:18:00,
2013-03-13 02:23:00,37.3,35.0,29.09,NW,315,3.0,5.0,91,0.00,,,0.00,Rainwise IP-100,2013-03-13 06:23:00,
2013-03-13 02:28:00,37.2,35.0,29.09,WNW,292,3.0,6.0,91,0.00,,,0.00,Rainwise IP-100,2013-03-13 06:28:00,
2013-03-13 02:33:00,37.5,35.0,29.09,NW,315,7.0,10.0,88,0.00,,,0.00,Rainwise IP-100,2013-03-13 06:33:00,
2013-03-13 02:38:00,37.5,35.0,29.09,NW,315,2.0,12.0,87,0.00,,,0.00,Rainwise IP-100,2013-03-13 06:38:00,
2013-03-13 02:43:00,37.2,35.0,29.09,NW,315,1.0,8.0,89,0.00,,,0.00,Rainwise IP-100,2013-03-13 06:43:00,
2013-03-13 02:49:00,37.2,33.0,29.09,NW,315,6.0,8.0,86,0.00,,,0.00,Rainwise IP-100,2013-03-13 06:49:00,
2013-03-13 02:54:00,37.2,33.0,29.10,NW,315,1.0,8.0,86,0.00,,,0.00,Rainwise IP-100,2013-03-13 06:54:00,
2013-03-13 02:59:00,36.9,33.0,29.09,NNW,337,5.0,9.0,86,0.00,,,0.00,Rainwise IP-100,2013-03-13 06:59:00,
2013-03-13 03:04:00,36.8,33.0,29.09,NNW,337,0.0,7.0,87,0.00,,,0.00,Rainwise IP-100,2013-03-13 07:04:00,
2013-03-13 03:09:00,36.7,33.0,29.09,NW,315,7.0,9.0,86,0.00,,,0.00,Rainwise IP-100,2013-03-13 07:09:00,
2013-03-13 03:14:00,36.8,33.0,29.09,NW,315,5.0,10.0,85,0.00,,,0.00,Rainwise IP-100,2013-03-13 07:14:00,
2013-03-13 03:19:00,36.7,33.0,29.09,North,360,2.0,7.0,86,0.00,,,0.00,Rainwise IP-100,2013-03-13 07:19:00,
2013-03-13 03:24:00,36.7,33.0,29.09,NNW,337,3.0,10.0,86,0.00,,,0.00,Rainwise IP-100,2013-03-13 07:24:00,
2013-03-13 03:30:00,36.6,33.0,29.09,NE,45,4.0,7.0,86,0.00,,,0.00,Rainwise IP-100,2013-03-13 07:30:00,
2013-03-13 03:35:00,36.6,33.0,29.09,WNW,292,7.0,9.0,86,0.00,,,0.00,Rainwise IP-100,2013-03-13 07:35:00,
2013-03-13 03:40:00,36.7,33.0,29.09,WNW,292,7.0,12.0,86,0.00,,,0.00,Rainwise IP-100,2013-03-13 07:40:00,
2013-03-13 03:45:00,36.9,32.0,29.08,WNW,292,9.0,12.0,84,0.00,,,0.00,Rainwise IP-100,2013-03-13 07:45:00,
2013-03-13 03:50:00,36.9,32.0,29.09,West,270,6.0,9.0,84,0.00,,,0.00,Rainwise IP-100,2013-03-13 07:50:00,
2013-03-13 03:55:00,36.9,32.0,29.09,NW,315,6.0,10.0,82,0.00,,,0.00,Rainwise IP-100,2013-03-13 07:55:00,
2013-03-13 04:00:00,36.7,33.0,29.09,NW,315,5.0,10.0,85,0.00,,,0.00,Rainwise IP-100,2013-03-13 08:00:00,
2013-03-13 04:07:00,36.5,33.0,29.09,North,360,0.0,6.0,86,0.00,,,0.00,Rainwise IP-100,2013-03-13 08:07:00,
2013-03-13 04:12:00,36.4,32.0,29.08,NW,315,6.0,7.0,86,0.00,,,0.00,Rainwise IP-100,2013-03-13 08:12:00,
2013-03-13 04:17:00,36.4,32.0,29.09,SSW,202,0.0,6.0,85,0.00,,,0.00,Rainwise IP-100,2013-03-13 08:17:00,
2013-03-13 04:22:00,36.3,32.0,29.09,WNW,292,4.0,6.0,85,0.00,,,0.00,Rainwise IP-100,2013-03-13 08:22:00,
2013-03-13 04:27:00,36.3,32.0,29.09,NNW,337,3.0,9.0,85,0.00,,,0.00,Rainwise IP-100,2013-03-13 08:27:00,
2013-03-13 04:32:00,36.3,32.0,29.09,West,270,4.0,8.0,84,0.00,,,0.00,Rainwise IP-100,2013-03-13 08:32:00,
2013-03-13 04:38:00,36.4,31.0,29.09,NW,315,5.0,9.0,83,0.00,,,0.00,Rainwise IP-100,2013-03-13 08:38:00,
2013-03-13 04:43:00,36.7,32.0,29.09,NW,315,6.0,10.0,82,0.00,,,0.00,Rainwise IP-100,2013-03-13 08:43:00,
2013-03-13 04:48:00,36.6,32.0,29.09,NW,315,4.0,10.0,82,0.00,,,0.00,Rainwise IP-100,2013-03-13 08:48:00,
2013-03-13 04:53:00,36.7,32.0,29.09,NW,315,3.0,9.0,81,0.00,,,0.00,Rainwise IP-100,2013-03-13 08:53:00,
2013-03-13 04:58:00,36.6,32.0,29.09,West,270,4.0,10.0,81,0.00,,,0.00,Rainwise IP-100,2013-03-13 08:58:00,
2013-03-13 05:03:00,36.5,32.0,29.09,WSW,247,5.0,9.0,82,0.00,,,0.00,Rainwise IP-100,2013-03-13 09:03:00,
2013-03-13 05:08:00,36.6,32.0,29.09,NW,315,4.0,13.0,80,0.00,,,0.00,Rainwise IP-100,2013-03-13 09:08:00,
2013-03-13 05:13:00,36.5,32.0,29.09,West,270,2.0,8.0,81,0.00,,,0.00,Rainwise IP-100,2013-03-13 09:13:00,
2013-03-13 05:19:00,36.3,31.0,29.10,WNW,292,7.0,7.0,81,0.00,,,0.00,Rainwise IP-100,2013-03-13 09:19:00,
2013-03-13 05:24:00,36.3,31.0,29.10,NW,315,2.0,9.0,81,0.00,,,0.00,Rainwise IP-100,2013-03-13 09:24:00,
2013-03-13 05:29:00,36.2,31.0,29.10,WNW,292,3.0,9.0,82,0.00,,,0.00,Rainwise IP-100,2013-03-13 09:29:00,
2013-03-13 05:34:00,36.1,31.0,29.10,NNE,22,5.0,7.0,82,0.00,,,0.00,Rainwise IP-100,2013-03-13 09:34:00,
2013-03-13 05:39:00,36.2,31.0,29.10,WNW,292,4.0,9.0,82,0.00,,,0.00,Rainwise IP-100,2013-03-13 09:39:00,
2013-03-13 05:44:00,36.0,31.0,29.10,WNW,292,0.0,6.0,82,0.00,,,0.00,Rainwise IP-100,2013-03-13 09:44:00,
2013-03-13 05:49:00,35.9,31.0,29.10,NW,315,1.0,7.0,82,0.00,,,0.00,Rainwise IP-100,2013-03-13 09:49:00,
2013-03-13 05:54:00,36.1,31.0,29.10,WNW,292,4.0,7.0,82,0.00,,,0.00,Rainwise IP-100,2013-03-13 09:54:00,
2013-03-13 06:00:00,36.0,31.0,29.10,NW,315,3.0,6.0,82,0.00,,,0.00,Rainwise IP-100,2013-03-13 10:00:00,
2013-03-13 06:05:00,35.9,31.0,29.10,NW,315,3.0,6.0,82,0.00,,,0.00,Rainwise IP-100,2013-03-13 10:05:00,
2013-03-13 06:10:00,35.6,31.0,29.10,WNW,292,2.0,5.0,83,0.00,,,0.00,Rainwise IP-100,2013-03-13 10:10:00,
2013-03-13 06:15:00,35.4,31.0,29.10,WNW,292,0.0,3.0,84,0.00,,,0.00,Rainwise IP-100,2013-03-13 10:15:00,
2013-03-13 06:20:00,35.3,31.0,29.10,WNW,292,1.0,7.0,83,0.00,,,0.00,Rainwise IP-100,2013-03-13 10:20:00,
2013-03-13 06:25:00,34.9,31.0,29.09,NW,315,1.0,5.0,84,0.00,,,0.00,Rainwise IP-100,2013-03-13 10:25:00,
2013-03-13 06:30:00,34.7,31.0,29.09,WNW,292,3.0,6.0,86,0.00,,,0.00,Rainwise IP-100,2013-03-13 10:30:00,
2013-03-13 06:35:00,34.6,31.0,29.09,WNW,292,2.0,4.0,86,0.00,,,0.00,Rainwise IP-100,2013-03-13 10:35:00,
2013-03-13 06:41:00,34.5,31.0,29.09,WNW,292,3.0,7.0,86,0.00,,,0.00,Rainwise IP-100,2013-03-13 10:41:00,
2013-03-13 06:46:00,34.5,31.0,29.09,WSW,247,1.0,5.0,86,0.00,,,0.00,Rainwise IP-100,2013-03-13 10:46:00,
2013-03-13 06:51:00,34.3,31.0,29.09,WNW,292,3.0,5.0,86,0.00,,,0.00,Rainwise IP-100,2013-03-13 10:51:00,
2013-03-13 06:56:00,34.3,31.0,29.09,WNW,292,3.0,7.0,87,0.00,,,0.00,Rainwise IP-100,2013-03-13 10:56:00,
2013-03-13 07:01:00,34.1,31.0,29.09,NW,315,2.0,5.0,87,0.00,,,0.00,Rainwise IP-100,2013-03-13 11:01:00,
2013-03-13 07:06:00,34.1,31.0,29.09,NW,315,2.0,4.0,87,0.00,,,0.00,Rainwise IP-100,2013-03-13 11:06:00,
2013-03-13 07:11:00,33.7,32.0,29.09,NW,315,3.0,3.0,88,0.00,,,0.00,Rainwise IP-100,2013-03-13 11:11:00,
2013-03-13 07:17:00,33.5,32.0,29.09,NW,315,4.0,5.0,89,0.00,,,0.00,Rainwise IP-100,2013-03-13 11:17:00,
2013-03-13 07:22:00,33.2,31.0,29.09,NW,315,2.0,4.0,89,0.00,,,0.00,Rainwise IP-100,2013-03-13 11:22:00,
2013-03-13 07:27:00,33.3,31.0,29.09,West,270,3.0,6.0,89,0.00,,,0.00,Rainwise IP-100,2013-03-13 11:27:00,
2013-03-13 07:32:00,33.4,31.0,29.08,West,270,5.0,6.0,89,0.00,,,0.00,Rainwise IP-100,2013-03-13 11:32:00,
2013-03-13 07:37:00,33.9,32.0,29.08,West,270,4.0,6.0,88,0.00,,,0.00,Rainwise IP-100,2013-03-13 11:37:00,
2013-03-13 07:42:00,34.0,32.0,29.08,West,270,2.0,6.0,88,0.00,,,0.00,Rainwise IP-100,2013-03-13 11:42:00,
2013-03-13 07:47:00,34.3,31.0,29.08,WNW,292,2.0,5.0,87,0.00,,,0.00,Rainwise IP-100,2013-03-13 11:47:00,
2013-03-13 07:53:00,34.6,31.0,29.08,WNW,292,4.0,6.0,86,0.00,,,0.00,Rainwise IP-100,2013-03-13 11:53:00,
2013-03-13 07:58:00,34.9,31.0,29.08,WNW,292,2.0,6.0,86,0.00,,,0.00,Rainwise IP-100,2013-03-13 11:58:00,
2013-03-13 08:03:00,35.3,31.0,29.08,NW,315,2.0,6.0,84,0.00,,,0.00,Rainwise IP-100,2013-03-13 12:03:00,
2013-03-13 08:08:00,35.9,31.0,29.08,WNW,292,6.0,7.0,83,0.00,,,0.00,Rainwise IP-100,2013-03-13 12:08:00,
2013-03-13 08:13:00,36.4,31.0,29.08,WNW,292,4.0,9.0,82,0.00,,,0.00,Rainwise IP-100,2013-03-13 12:13:00,
2013-03-13 08:18:00,36.7,32.0,29.08,NNW,337,6.0,7.0,81,0.00,,,0.00,Rainwise IP-100,2013-03-13 12:18:00,
2013-03-13 08:23:00,36.9,32.0,29.08,NW,315,9.0,10.0,80,0.00,,,0.00,Rainwise IP-100,2013-03-13 12:23:00,
2013-03-13 08:28:00,37.1,31.0,29.08,West,270,3.0,10.0,79,0.00,,,0.00,Rainwise IP-100,2013-03-13 12:28:00,
2013-03-13 08:33:00,37.2,31.0,29.09,West,270,6.0,10.0,78,0.00,,,0.00,Rainwise IP-100,2013-03-13 12:33:00,
2013-03-13 08:38:00,37.5,32.0,29.09,NW,315,7.0,10.0,77,0.00,,,0.00,Rainwise IP-100,2013-03-13 12:38:00,
2013-03-13 08:43:00,37.7,31.0,29.09,NW,315,5.0,11.0,75,0.00,,,0.00,Rainwise IP-100,2013-03-13 12:43:00,
2013-03-13 08:48:00,38.1,31.0,29.09,WNW,292,6.0,8.0,74,0.00,,,0.00,Rainwise IP-100,2013-03-13 12:48:00,
2013-03-13 08:54:00,38.5,32.0,29.09,WNW,292,4.0,10.0,75,0.00,,,0.00,Rainwise IP-100,2013-03-13 12:54:00,
2013-03-13 08:59:00,38.2,31.0,29.09,West,270,7.0,12.0,74,0.00,,,0.00,Rainwise IP-100,2013-03-13 12:59:00,
2013-03-13 09:04:00,37.8,31.0,29.09,West,270,9.0,12.0,73,0.00,,,0.00,Rainwise IP-100,2013-03-13 13:04:00,
2013-03-13 09:09:00,37.9,31.0,29.09,West,270,6.0,14.0,74,0.00,,,0.00,Rainwise IP-100,2013-03-13 13:09:00,
2013-03-13 09:14:00,38.5,31.0,29.09,WSW,247,6.0,13.0,72,0.00,,,0.00,Rainwise IP-100,2013-03-13 13:14:00,
2013-03-13 09:19:00,39.1,31.0,29.09,West,270,7.0,11.0,71,0.00,,,0.00,Rainwise IP-100,2013-03-13 13:19:00,
2013-03-13 09:24:00,39.4,31.0,29.09,NW,315,10.0,12.0,70,0.00,,,0.00,Rainwise IP-100,2013-03-13 13:24:00,
2013-03-13 09:29:00,39.1,31.0,29.09,West,270,7.0,12.0,69,0.00,,,0.00,Rainwise IP-100,2013-03-13 13:29:00,
2013-03-13 09:34:00,39.3,31.0,29.09,NW,315,5.0,12.0,70,0.00,,,0.00,Rainwise IP-100,2013-03-13 13:34:00,
2013-03-13 09:40:00,39.0,31.0,29.09,West,270,10.0,12.0,70,0.00,,,0.00,Rainwise IP-100,2013-03-13 13:40:00,
2013-03-13 09:45:00,38.8,31.0,29.10,West,270,6.0,11.0,71,0.00,,,0.00,Rainwise IP-100,2013-03-13 13:45:00,
2013-03-13 09:50:00,38.8,31.0,29.09,NNW,337,7.0,12.0,71,0.00,,,0.00,Rainwise IP-100,2013-03-13 13:50:00,
2013-03-13 09:55:00,38.9,31.0,29.09,WNW,292,8.0,10.0,70,0.00,,,0.00,Rainwise IP-100,2013-03-13 13:55:00,
2013-03-13 10:00:00,38.8,31.0,29.09,West,270,9.0,12.0,71,0.00,,,0.00,Rainwise IP-100,2013-03-13 14:00:00,
2013-03-13 10:05:00,39.2,31.0,29.08,WNW,292,5.0,11.0,70,0.00,,,0.00,Rainwise IP-100,2013-03-13 14:05:00,
2013-03-13 10:10:00,39.1,31.0,29.09,NW,315,9.0,13.0,70,0.00,,,0.00,Rainwise IP-100,2013-03-13 14:10:00,
2013-03-13 10:15:00,39.1,31.0,29.09,West,270,9.0,12.0,69,0.00,,,0.00,Rainwise IP-100,2013-03-13 14:15:00,
2013-03-13 10:20:00,39.2,31.0,29.09,NW,315,8.0,12.0,71,0.00,,,0.00,Rainwise IP-100,2013-03-13 14:20:00,
2013-03-13 10:26:00,39.4,31.0,29.09,NW,315,10.0,10.0,69,0.00,,,0.00,Rainwise IP-100,2013-03-13 14:26:00,
2013-03-13 10:31:00,39.8,31.0,29.08,West,270,7.0,13.0,67,0.00,,,0.00,Rainwise IP-100,2013-03-13 14:31:00,
2013-03-13 10:36:00,40.1,29.0,29.08,West,270,8.0,9.0,65,0.00,,,0.00,Rainwise IP-100,2013-03-13 14:36:00,
2013-03-13 10:41:00,40.8,29.0,29.08,West,270,9.0,13.0,62,0.00,,,0.00,Rainwise IP-100,2013-03-13 14:41:00,
2013-03-13 10:46:00,41.2,29.0,29.09,NW,315,4.0,11.0,61,0.00,,,0.00,Rainwise IP-100,2013-03-13 14:46:00,
2013-03-13 10:51:00,40.8,29.0,29.09,WNW,292,5.0,10.0,60,0.00,,,0.00,Rainwise IP-100,2013-03-13 14:51:00,
2013-03-13 10:57:00,40.8,29.0,29.09,WNW,292,7.0,9.0,61,0.00,,,0.00,Rainwise IP-100,2013-03-13 14:57:00,
2013-03-13 11:02:00,40.2,28.0,29.09,WNW,292,7.0,13.0,58,0.00,,,0.00,Rainwise IP-100,2013-03-13 15:02:00,
2013-03-13 11:07:00,39.9,28.0,29.09,West,270,8.0,12.0,60,0.00,,,0.00,Rainwise IP-100,2013-03-13 15:07:00,
2013-03-13 11:12:00,39.8,28.0,29.09,NW,315,10.0,12.0,60,0.00,,,0.00,Rainwise IP-100,2013-03-13 15:12:00,
2013-03-13 11:17:00,39.8,28.0,29.09,West,270,5.0,10.0,61,0.00,,,0.00,Rainwise IP-100,2013-03-13 15:17:00,
2013-03-13 11:22:00,39.6,28.0,29.09,West,270,9.0,9.0,61,0.00,,,0.00,Rainwise IP-100,2013-03-13 15:22:00,
2013-03-13 11:27:00,39.3,28.0,29.09,WNW,292,7.0,10.0,63,0.00,,,0.00,Rainwise IP-100,2013-03-13 15:27:00,
2013-03-13 11:33:00,39.4,28.0,29.09,WNW,292,6.0,9.0,63,0.00,,,0.00,Rainwise IP-100,2013-03-13 15:33:00,
2013-03-13 11:38:00,39.3,26.0,29.09,SW,225,6.0,14.0,59,0.00,,,0.00,Rainwise IP-100,2013-03-13 15:38:00,
2013-03-13 11:43:00,39.4,26.0,29.09,WSW,247,10.0,13.0,57,0.00,,,0.00,Rainwise IP-100,2013-03-13 15:43:00,
2013-03-13 11:48:00,39.6,26.0,29.09,WSW,247,9.0,15.0,56,0.00,,,0.00,Rainwise IP-100,2013-03-13 15:48:00,
2013-03-13 11:53:00,40.0,28.0,29.09,WSW,247,3.0,10.0,58,0.00,,,0.00,Rainwise IP-100,2013-03-13 15:53:00,
2013-03-13 11:58:00,40.8,26.0,29.09,NW,315,6.0,12.0,53,0.00,,,0.00,Rainwise IP-100,2013-03-13 15:58:00,
2013-03-13 12:03:00,40.7,26.0,29.09,WNW,292,8.0,15.0,52,0.00,,,0.00,Rainwise IP-100,2013-03-13 16:03:00,
2013-03-13 12:08:00,40.6,26.0,29.09,West,270,9.0,12.0,52,0.00,,,0.00,Rainwise IP-100,2013-03-13 16:08:00,
2013-03-13 12:14:00,40.9,26.0,29.09,South,180,6.0,11.0,52,0.00,,,0.00,Rainwise IP-100,2013-03-13 16:14:00,
2013-03-13 12:19:00,41.9,26.0,29.09,WNW,292,4.0,13.0,51,0.00,,,0.00,Rainwise IP-100,2013-03-13 16:19:00,
2013-03-13 12:24:00,42.8,24.0,29.09,West,270,5.0,9.0,47,0.00,,,0.00,Rainwise IP-100,2013-03-13 16:24:00,
2013-03-13 12:29:00,42.8,28.0,29.09,West,270,6.0,12.0,52,0.00,,,0.00,Rainwise IP-100,2013-03-13 16:29:00,
2013-03-13 12:34:00,41.9,26.0,29.09,NNW,337,7.0,10.0,51,0.00,,,0.00,Rainwise IP-100,2013-03-13 16:34:00,
2013-03-13 12:39:00,41.2,24.0,29.09,NW,315,12.0,12.0,51,0.00,,,0.00,Rainwise IP-100,2013-03-13 16:39:00,
2013-03-13 12:44:00,42.4,26.0,29.08,NW,315,10.0,12.0,50,0.00,,,0.00,Rainwise IP-100,2013-03-13 16:44:00,
2013-03-13 12:49:00,42.9,26.0,29.08,West,270,6.0,13.0,49,0.00,,,0.00,Rainwise IP-100,2013-03-13 16:49:00,
2013-03-13 12:54:00,43.5,26.0,29.08,WSW,247,7.0,12.0,48,0.00,,,0.00,Rainwise IP-100,2013-03-13 16:54:00,
2013-03-13 12:59:00,43.4,24.0,29.08,SW,225,9.0,13.0,46,0.00,,,0.00,Rainwise IP-100,2013-03-13 16:59:00,
2013-03-13 13:05:00,43.1,24.0,29.08,WNW,292,7.0,15.0,46,0.00,,,0.00,Rainwise IP-100,2013-03-13 17:05:00,
2013-03-13 13:10:00,43.8,28.0,29.08,West,270,9.0,13.0,51,0.00,,,0.00,Rainwise IP-100,2013-03-13 17:10:00,
2013-03-13 13:15:00,43.0,24.0,29.08,West,270,7.0,15.0,48,0.00,,,0.00,Rainwise IP-100,2013-03-13 17:15:00,
2013-03-13 13:20:00,43.1,26.0,29.07,SW,225,6.0,14.0,49,0.00,,,0.00,Rainwise IP-100,2013-03-13 17:20:00,
2013-03-13 13:25:00,42.6,26.0,29.07,WSW,247,9.0,15.0,51,0.00,,,0.00,Rainwise IP-100,2013-03-13 17:25:00,
2013-03-13 13:30:00,42.3,24.0,29.07,WSW,247,6.0,15.0,48,0.00,,,0.00,Rainwise IP-100,2013-03-13 17:30:00,
2013-03-13 13:35:00,43.4,26.0,29.07,SW,225,11.0,11.0,49,0.00,,,0.00,Rainwise IP-100,2013-03-13 17:35:00,
2013-03-13 13:40:00,43.0,26.0,29.07,WNW,292,10.0,12.0,49,0.00,,,0.00,Rainwise IP-100,2013-03-13 17:40:00,
2013-03-13 13:46:00,43.4,24.0,29.07,NW,315,9.0,10.0,47,0.00,,,0.00,Rainwise IP-100,2013-03-13 17:46:00,
2013-03-13 13:51:00,43.7,26.0,29.07,WSW,247,4.0,11.0,47,0.00,,,0.00,Rainwise IP-100,2013-03-13 17:51:00,
2013-03-13 13:56:00,43.8,26.0,29.07,SW,225,11.0,11.0,47,0.00,,,0.00,Rainwise IP-100,2013-03-13 17:56:00,
2013-03-13 14:01:00,42.9,24.0,29.07,NW,315,7.0,14.0,47,0.00,,,0.00,Rainwise IP-100,2013-03-13 18:01:00,
2013-03-13 14:06:00,43.2,24.0,29.07,NW,315,6.0,14.0,47,0.00,,,0.00,Rainwise IP-100,2013-03-13 18:06:00,
2013-03-13 14:11:00,43.6,28.0,29.07,WSW,247,7.0,15.0,50,0.00,,,0.00,Rainwise IP-100,2013-03-13 18:11:00,
2013-03-13 14:16:00,42.9,24.0,29.07,NW,315,10.0,14.0,48,0.00,,,0.00,Rainwise IP-100,2013-03-13 18:16:00,
2013-03-13 14:22:00,42.7,24.0,29.07,WSW,247,9.0,13.0,47,0.00,,,0.00,Rainwise IP-100,2013-03-13 18:22:00,
2013-03-13 14:27:00,42.4,24.0,29.06,West,270,7.0,13.0,47,0.00,,,0.00,Rainwise IP-100,2013-03-13 18:27:00,
2013-03-13 14:32:00,42.0,23.0,29.06,NW,315,5.0,12.0,46,0.00,,,0.00,Rainwise IP-100,2013-03-13 18:32:00,
2013-03-13 14:37:00,41.7,24.0,29.06,SW,225,10.0,16.0,47,0.00,,,0.00,Rainwise IP-100,2013-03-13 18:37:00,
2013-03-13 14:42:00,41.8,24.0,29.06,WNW,292,9.0,11.0,48,0.00,,,0.00,Rainwise IP-100,2013-03-13 18:42:00,
2013-03-13 14:47:00,42.5,24.0,29.05,SW,225,7.0,13.0,46,0.00,,,0.00,Rainwise IP-100,2013-03-13 18:47:00,
2013-03-13 14:52:00,43.4,24.0,29.05,NNE,22,4.0,10.0,46,0.00,,,0.00,Rainwise IP-100,2013-03-13 18:52:00,
2013-03-13 14:57:00,43.9,24.0,29.05,WNW,292,3.0,13.0,45,0.00,,,0.00,Rainwise IP-100,2013-03-13 18:57:00,
2013-03-13 15:02:00,44.5,24.0,29.05,SW,225,7.0,12.0,44,0.00,,,0.00,Rainwise IP-100,2013-03-13 19:02:00,
2013-03-13 15:08:00,44.5,24.0,29.05,NW,315,8.0,16.0,44,0.00,,,0.00,Rainwise IP-100,2013-03-13 19:08:00,
2013-03-13 15:13:00,44.9,24.0,29.05,SW,225,9.0,12.0,43,0.00,,,0.00,Rainwise IP-100,2013-03-13 19:13:00,
2013-03-13 15:18:00,44.3,23.0,29.05,West,270,8.0,17.0,42,0.00,,,0.00,Rainwise IP-100,2013-03-13 19:18:00,
2013-03-13 15:23:00,44.2,23.0,29.05,WNW,292,11.0,12.0,43,0.00,,,0.00,Rainwise IP-100,2013-03-13 19:23:00,
2013-03-13 15:28:00,44.3,24.0,29.05,SW,225,9.0,13.0,44,0.00,,,0.00,Rainwise IP-100,2013-03-13 19:28:00,
2013-03-13 15:33:00,43.9,23.0,29.05,SW,225,7.0,15.0,41,0.00,,,0.00,Rainwise IP-100,2013-03-13 19:33:00,
2013-03-13 15:38:00,44.5,24.0,29.05,WSW,247,6.0,12.0,43,0.00,,,0.00,Rainwise IP-100,2013-03-13 19:38:00,
2013-03-13 15:44:00,44.7,24.0,29.05,SSW,202,5.0,10.0,42,0.00,,,0.00,Rainwise IP-100,2013-03-13 19:44:00,
2013-03-13 15:49:00,44.5,24.0,29.05,SW,225,12.0,13.0,42,0.00,,,0.00,Rainwise IP-100,2013-03-13 19:49:00,
2013-03-13 15:54:00,44.3,23.0,29.05,NW,315,8.0,15.0,40,0.00,,,0.00,Rainwise IP-100,2013-03-13 19:54:00,
2013-03-13 15:59:00,43.9,23.0,29.05,NNW,337,8.0,13.0,42,0.00,,,0.00,Rainwise IP-100,2013-03-13 19:59:00,
2013-03-13 16:04:00,43.3,23.0,29.06,West,270,7.0,13.0,42,0.00,,,0.00,Rainwise IP-100,2013-03-13 20:04:00,
2013-03-13 16:09:00,42.4,21.0,29.06,WSW,247,9.0,17.0,40,0.00,,,0.00,Rainwise IP-100,2013-03-13 20:09:00,
2013-03-13 16:14:00,42.5,21.0,29.05,NW,315,6.0,14.0,41,0.00,,,0.00,Rainwise IP-100,2013-03-13 20:14:00,
2013-03-13 16:19:00,43.2,21.0,29.05,WNW,292,6.0,13.0,41,0.00,,,0.00,Rainwise IP-100,2013-03-13 20:19:00,
2013-03-13 16:24:00,43.4,21.0,29.05,West,270,11.0,13.0,41,0.00,,,0.00,Rainwise IP-100,2013-03-13 20:24:00,
2013-03-13 16:30:00,42.6,21.0,29.06,West,270,8.0,12.0,41,0.00,,,0.00,Rainwise IP-100,2013-03-13 20:30:00,
2013-03-13 16:35:00,42.3,21.0,29.06,West,270,9.0,14.0,42,0.00,,,0.00,Rainwise IP-100,2013-03-13 20:35:00,
2013-03-13 16:40:00,42.4,21.0,29.06,West,270,5.0,13.0,41,0.00,,,0.00,Rainwise IP-100,2013-03-13 20:40:00,
2013-03-13 16:45:00,43.3,23.0,29.06,NNW,337,7.0,13.0,42,0.00,,,0.00,Rainwise IP-100,2013-03-13 20:45:00,
2013-03-13 16:50:00,43.3,21.0,29.06,NW,315,9.0,14.0,41,0.00,,,0.00,Rainwise IP-100,2013-03-13 20:50:00,
2013-03-13 16:55:00,42.2,21.0,29.06,North,360,7.0,15.0,42,0.00,,,0.00,Rainwise IP-100,2013-03-13 20:55:00,
2013-03-13 17:00:00,41.7,23.0,29.06,WNW,292,5.0,13.0,43,0.00,,,0.00,Rainwise IP-100,2013-03-13 21:00:00,
2013-03-13 17:05:00,41.5,23.0,29.06,West,270,4.0,9.0,44,0.00,,,0.00,Rainwise IP-100,2013-03-13 21:05:00,
2013-03-13 17:11:00,41.3,21.0,29.06,West,270,8.0,13.0,43,0.00,,,0.00,Rainwise IP-100,2013-03-13 21:11:00,
2013-03-13 17:16:00,41.2,21.0,29.06,West,270,7.0,10.0,42,0.00,,,0.00,Rainwise IP-100,2013-03-13 21:16:00,
2013-03-13 17:21:00,41.5,23.0,29.06,SW,225,7.0,15.0,44,0.00,,,0.00,Rainwise IP-100,2013-03-13 21:21:00,
2013-03-13 17:26:00,42.2,21.0,29.06,WSW,247,4.0,9.0,42,0.00,,,0.00,Rainwise IP-100,2013-03-13 21:26:00,
2013-03-13 17:31:00,42.6,23.0,29.06,NNW,337,3.0,10.0,44,0.00,,,0.00,Rainwise IP-100,2013-03-13 21:31:00,
2013-03-13 17:36:00,41.6,23.0,29.06,West,270,6.0,13.0,43,0.00,,,0.00,Rainwise IP-100,2013-03-13 21:36:00,
2013-03-13 17:42:00,41.4,21.0,29.06,SW,225,12.0,14.0,42,0.00,,,0.00,Rainwise IP-100,2013-03-13 21:42:00,
2013-03-13 17:47:00,41.6,21.0,29.06,WNW,292,10.0,15.0,41,0.00,,,0.00,Rainwise IP-100,2013-03-13 21:47:00,
2013-03-13 17:52:00,41.9,21.0,29.05,West,270,2.0,12.0,42,0.00,,,0.00,Rainwise IP-100,2013-03-13 21:52:00,
2013-03-13 17:57:00,41.8,21.0,29.06,West,270,5.0,7.0,41,0.00,,,0.00,Rainwise IP-100,2013-03-13 21:57:00,
2013-03-13 18:02:00,41.4,21.0,29.06,West,270,5.0,9.0,42,0.00,,,0.00,Rainwise IP-100,2013-03-13 22:02:00,
2013-03-13 18:07:00,41.2,21.0,29.06,NNW,337,6.0,10.0,43,0.00,,,0.00,Rainwise IP-100,2013-03-13 22:07:00,
2013-03-13 18:12:00,41.1,21.0,29.06,West,270,7.0,9.0,43,0.00,,,0.00,Rainwise IP-100,2013-03-13 22:12:00,
2013-03-13 18:17:00,40.3,21.0,29.06,WSW,247,6.0,7.0,45,0.00,,,0.00,Rainwise IP-100,2013-03-13 22:17:00,
2013-03-13 18:23:00,39.9,21.0,29.06,WSW,247,6.0,7.0,44,0.00,,,0.00,Rainwise IP-100,2013-03-13 22:23:00,
2013-03-13 18:28:00,39.6,23.0,29.06,WSW,247,4.0,7.0,46,0.00,,,0.00,Rainwise IP-100,2013-03-13 22:28:00,
2013-03-13 18:33:00,38.9,21.0,29.06,WSW,247,6.0,6.0,47,0.00,,,0.00,Rainwise IP-100,2013-03-13 22:33:00,
2013-03-13 18:38:00,38.4,21.0,29.06,West,270,1.0,6.0,49,0.00,,,0.00,Rainwise IP-100,2013-03-13 22:38:00,
2013-03-13 18:43:00,37.9,21.0,29.06,WSW,247,1.0,6.0,49,0.00,,,0.00,Rainwise IP-100,2013-03-13 22:43:00,
2013-03-13 18:48:00,37.3,21.0,29.06,WSW,247,3.0,4.0,49,0.00,,,0.00,Rainwise IP-100,2013-03-13 22:48:00,
2013-03-13 18:53:00,36.9,21.0,29.06,WNW,292,3.0,7.0,52,0.00,,,0.00,Rainwise IP-100,2013-03-13 22:53:00,
2013-03-13 18:59:00,36.4,21.0,29.06,WNW,292,3.0,3.0,54,0.00,,,0.00,Rainwise IP-100,2013-03-13 22:59:00,
2013-03-13 19:04:00,35.3,23.0,29.06,WNW,292,1.0,3.0,58,0.00,,,0.00,Rainwise IP-100,2013-03-13 23:04:00,
2013-03-13 19:09:00,34.2,23.0,29.05,WNW,292,2.0,2.0,62,0.00,,,0.00,Rainwise IP-100,2013-03-13 23:09:00,
2013-03-13 19:14:00,33.2,23.0,29.05,WNW,292,0.0,3.0,62,0.00,,,0.00,Rainwise IP-100,2013-03-13 23:14:00,
2013-03-13 19:19:00,32.0,23.0,29.05,WNW,292,0.0,0.0,65,0.00,,,0.00,Rainwise IP-100,2013-03-13 23:19:00,
2013-03-13 19:24:00,31.2,23.0,29.05,WNW,292,0.0,3.0,69,0.00,,,0.00,Rainwise IP-100,2013-03-13 23:24:00,
2013-03-13 19:29:00,30.8,23.0,29.05,West,270,2.0,3.0,68,0.00,,,0.00,Rainwise IP-100,2013-03-13 23:29:00,
2013-03-13 19:34:00,31.3,23.0,29.05,WNW,292,1.0,4.0,68,0.00,,,0.00,Rainwise IP-100,2013-03-13 23:34:00,
2013-03-13 19:40:00,31.2,23.0,29.05,West,270,1.0,3.0,68,0.00,,,0.00,Rainwise IP-100,2013-03-13 23:40:00,
2013-03-13 19:45:00,31.1,23.0,29.05,West,270,2.0,3.0,71,0.00,,,0.00,Rainwise IP-100,2013-03-13 23:45:00,
2013-03-13 19:50:00,30.6,23.0,29.05,West,270,1.0,2.0,72,0.00,,,0.00,Rainwise IP-100,2013-03-13 23:50:00,
2013-03-13 19:55:00,30.3,23.0,29.05,West,270,1.0,3.0,72,0.00,,,0.00,Rainwise IP-100,2013-03-13 23:55:00,
2013-03-13 20:00:00,30.3,23.0,29.05,WSW,247,2.0,4.0,70,0.00,,,0.00,Rainwise IP-100,2013-03-14 00:00:00,
2013-03-13 20:05:00,30.6,23.0,29.05,WSW,247,3.0,4.0,72,0.00,,,0.00,Rainwise IP-100,2013-03-14 00:05:00,
2013-03-13 20:10:00,30.3,23.0,29.05,West,270,2.0,4.0,73,0.00,,,0.00,Rainwise IP-100,2013-03-14 00:10:00,
2013-03-13 20:15:00,30.0,24.0,29.05,WSW,247,3.0,3.0,74,0.00,,,0.00,Rainwise IP-100,2013-03-14 00:15:00,
2013-03-13 20:21:00,30.2,23.0,29.05,WSW,247,2.0,4.0,73,0.00,,,0.00,Rainwise IP-100,2013-03-14 00:21:00,
2013-03-13 20:26:00,30.4,23.0,29.05,WSW,247,2.0,5.0,72,0.00,,,0.00,Rainwise IP-100,2013-03-14 00:26:00,
2013-03-13 20:31:00,30.1,23.0,29.05,WSW,247,0.0,3.0,72,0.00,,,0.00,Rainwise IP-100,2013-03-14 00:31:00,
2013-03-13 20:36:00,29.8,24.0,29.05,WSW,247,0.0,2.0,75,0.00,,,0.00,Rainwise IP-100,2013-03-14 00:36:00,
2013-03-13 20:41:00,29.1,23.0,29.05,WSW,247,0.0,1.0,72,0.00,,,0.00,Rainwise IP-100,2013-03-14 00:41:00,
2013-03-13 20:46:00,28.4,21.0,29.05,WSW,247,0.0,0.0,73,0.00,,,0.00,Rainwise IP-100,2013-03-14 00:46:00,
2013-03-13 20:51:00,27.6,21.0,29.05,WSW,247,0.0,0.0,73,0.00,,,0.00,Rainwise IP-100,2013-03-14 00:51:00,
2013-03-13 20:57:00,26.7,23.0,29.05,WSW,247,0.0,0.0,77,0.00,,,0.00,Rainwise IP-100,2013-03-14 00:57:00,
2013-03-13 21:02:00,26.4,21.0,29.05,WSW,247,0.0,0.0,78,0.00,,,0.00,Rainwise IP-100,2013-03-14 01:02:00,
2013-03-13 21:07:00,25.9,21.0,29.06,WSW,247,0.0,0.0,80,0.00,,,0.00,Rainwise IP-100,2013-03-14 01:07:00,
2013-03-13 21:12:00,25.6,21.0,29.06,WSW,247,0.0,0.0,79,0.00,,,0.00,Rainwise IP-100,2013-03-14 01:12:00,
2013-03-13 21:17:00,25.2,21.0,29.06,WSW,247,0.0,0.0,81,0.00,,,0.00,Rainwise IP-100,2013-03-14 01:17:00,
2013-03-13 21:22:00,25.1,23.0,29.06,WSW,247,0.0,0.0,86,0.00,,,0.00,Rainwise IP-100,2013-03-14 01:22:00,
2013-03-13 21:27:00,25.3,23.0,29.06,WSW,247,0.0,0.0,87,0.00,,,0.00,Rainwise IP-100,2013-03-14 01:27:00,
2013-03-13 21:32:00,25.7,23.0,29.06,WSW,247,0.0,0.0,85,0.00,,,0.00,Rainwise IP-100,2013-03-14 01:32:00,
2013-03-13 21:37:00,25.9,23.0,29.06,WSW,247,1.0,0.0,87,0.00,,,0.00,Rainwise IP-100,2013-03-14 01:37:00,
2013-03-13 21:43:00,26.1,23.0,29.06,West,270,2.0,3.0,84,0.00,,,0.00,Rainwise IP-100,2013-03-14 01:43:00,
2013-03-13 21:48:00,26.9,23.0,29.05,WNW,292,1.0,6.0,82,0.00,,,0.00,Rainwise IP-100,2013-03-14 01:48:00,
2013-03-13 21:53:00,28.8,23.0,29.05,WSW,247,4.0,8.0,72,0.00,,,0.00,Rainwise IP-100,2013-03-14 01:53:00,
2013-03-13 21:58:00,30.4,23.0,29.05,SW,225,4.0,6.0,71,0.00,,,0.00,Rainwise IP-100,2013-03-14 01:58:00,
2013-03-13 22:03:00,30.9,23.0,29.05,WSW,247,4.0,7.0,68,0.00,,,0.00,Rainwise IP-100,2013-03-14 02:03:00,
2013-03-13 22:08:00,31.9,23.0,29.05,WSW,247,4.0,7.0,66,0.00,,,0.00,Rainwise IP-100,2013-03-14 02:08:00,
2013-03-13 22:13:00,32.4,23.0,29.06,West,270,6.0,7.0,65,0.00,,,0.00,Rainwise IP-100,2013-03-14 02:13:00,
2013-03-13 22:18:00,33.2,23.0,29.06,WNW,292,6.0,7.0,63,0.00,,,0.00,Rainwise IP-100,2013-03-14 02:18:00,
2013-03-13 22:23:00,33.4,23.0,29.06,WSW,247,4.0,7.0,62,0.00,,,0.00,Rainwise IP-100,2013-03-14 02:23:00,
2013-03-13 22:28:00,33.2,23.0,29.06,West,270,4.0,7.0,64,0.00,,,0.00,Rainwise IP-100,2013-03-14 02:28:00,
2013-03-13 22:33:00,33.3,23.0,29.06,WNW,292,6.0,8.0,63,0.00,,,0.00,Rainwise IP-100,2013-03-14 02:33:00,
2013-03-13 22:39:00,33.1,23.0,29.07,West,270,5.0,7.0,64,0.00,,,0.00,Rainwise IP-100,2013-03-14 02:39:00,
2013-03-13 22:44:00,32.8,23.0,29.07,WNW,292,3.0,6.0,65,0.00,,,0.00,Rainwise IP-100,2013-03-14 02:44:00,
2013-03-13 22:49:00,32.6,24.0,29.07,WSW,247,4.0,6.0,66,0.00,,,0.00,Rainwise IP-100,2013-03-14 02:49:00,
2013-03-13 22:54:00,32.7,24.0,29.07,WSW,247,6.0,9.0,66,0.00,,,0.00,Rainwise IP-100,2013-03-14 02:54:00,
2013-03-13 22:59:00,33.0,24.0,29.07,WSW,247,5.0,7.0,67,0.00,,,0.00,Rainwise IP-100,2013-03-14 02:59:00,
2013-03-13 23:04:00,33.1,24.0,29.07,West,270,5.0,7.0,68,0.00,,,0.00,Rainwise IP-100,2013-03-14 03:04:00,
2013-03-13 23:09:00,33.4,24.0,29.06,WSW,247,5.0,10.0,67,0.00,,,0.00,Rainwise IP-100,2013-03-14 03:09:00,
2013-03-13 23:15:00,33.1,24.0,29.06,WSW,247,6.0,7.0,69,0.00,,,0.00,Rainwise IP-100,2013-03-14 03:15:00,
2013-03-13 23:20:00,33.1,24.0,29.06,WSW,247,5.0,9.0,69,0.00,,,0.00,Rainwise IP-100,2013-03-14 03:20:00,
2013-03-13 23:25:00,33.2,24.0,29.06,WSW,247,5.0,10.0,71,0.00,,,0.00,Rainwise IP-100,2013-03-14 03:25:00,
2013-03-13 23:30:00,33.3,26.0,29.06,West,270,3.0,15.0,73,0.00,,,0.00,Rainwise IP-100,2013-03-14 03:30:00,
2013-03-13 23:35:00,33.3,26.0,29.06,West,270,6.0,13.0,74,0.00,,,0.00,Rainwise IP-100,2013-03-14 03:35:00,
2013-03-13 23:40:00,33.1,26.0,29.06,West,270,7.0,9.0,74,0.00,,,0.00,Rainwise IP-100,2013-03-14 03:40:00,
2013-03-13 23:45:00,33.1,26.0,29.06,West,270,5.0,10.0,74,0.00,,,0.00,Rainwise IP-100,2013-03-14 03:45:00,
2013-03-13 23:50:00,32.9,26.0,29.05,West,270,6.0,8.0,75,0.00,,,0.00,Rainwise IP-100,2013-03-14 03:50:00,
2013-03-13 23:56:00,32.9,26.0,29.05,SW,225,5.0,11.0,74,0.00,,,0.00,Rainwise IP-100,2013-03-14 03:56:00,